Content
SEND FEEDBACK

Daily
Averages
Monthly
Summary
United States of America

ANN ARBOR, MICHIGAN


Home > North America > United States > Michigan
Elevation: 759 feet     Latitude: 42 17N     Longitude: 083 43W

WEATHER
 
SELECT A DAY
Number of Records: 208,835;   Date Range: 1/1/95 - 12/17/14
 
SHARE

PRINT THIS DATA

[ ← Previous Day ]
WEATHER ALMANAC - APRIL 15, 2014
[ Next Day → ]
[ °C ]   °F
Weather ElementAverageHighLow
Temperature28 °F34 °F (4:53 pm)25 °F (6:53 am)
Dewpoint20 °F27 °F (12:20 am)8.1 °F (9:53 pm)
Humidity73.9 %92 % (1:53 am)41 % (9:53 pm)
Barometer29.92 in30.27 in (11:53 pm)29.78 in (12:41 am)
Wind Speed13.3 mph20.7 mph (2:53 pm)
Wind Gust28.8 mph (2:53 pm)
Weather ElementAverage
Visibility5.6 mi
Wind DirectionNW (316.2 °)

Weather ElementTotal
Precipitation0.25 in
Heating Degree Days35.5 (Base 65)
Averaged from 45 records on April 15, 2014
WEATHER CONDITIONS BREAKOUT
WIND DIRECTION BREAKOUT
WEATHER BY HOUR - APRIL 15, 2014
[ °C ]   °F
Local TimeTemperatureDewpointHumidityBarometerVisibilityWind DirectionWind SpeedGust SpeedPrecipitationEventsConditions
12:20 AM30.9 °F27.0 °F85 %29.80 in1.5 miNNW (340°)17.3 mph25.3 mph0.01 inSnowLight Snow
12:41 AM30.0 °F27.0 °F88 %29.78 in1.2 miNNW (340°)15.0 mph24.2 mph0.01 inSnowLight Snow
12:53 AM30.0 °F27.0 °F88 %29.81 in1.2 miNNW (340°)16.1 mph21.9 mph0.01 inSnowLight Snow
1:03 AM30.0 °F27.0 °F88 %29.81 in1.8 miNNW (340°)11.5 mph20.7 mph0.00 inSnowLight Snow
1:14 AM28.9 °F26.1 °F89 %29.80 in1.0 miNNW (340°)13.8 mph24.2 mph0.01 inSnowLight Snow
1:30 AM28.9 °F26.1 °F89 %29.80 in0.5 miNNW (340°)13.8 mph0.02 inFog-SnowSnow
1:53 AM28.0 °F26.1 °F92 %29.81 in0.2 miNNW (340°)15.0 mph19.6 mph0.05 inFog-SnowHeavy Snow
2:20 AM27.0 °F25.0 °F92 %29.80 in0.8 miNNW (340°)12.7 mph23.0 mph0.02 inSnowLight Snow
2:24 AM27.0 °F25.0 °F92 %29.79 in1.0 miNNW (340°)11.5 mph23.0 mph0.02 inSnowLight Snow
2:33 AM27.0 °F24.1 °F89 %29.79 in1.5 miNNW (340°)13.8 mph23.0 mph0.02 inSnowLight Snow
2:39 AM27.0 °F24.1 °F89 %29.79 in2.0 miNNW (340°)10.4 mph20.7 mph0.02 inSnowLight Snow
2:51 AM28.4 °F24.8 °F86 %29.80 in1.5 miNNW (330°)10.4 mph0.03 inSnowLight Snow
2:53 AM28.0 °F25.0 °F88 %29.81 in1.5 miNNW (330°)10.4 mph0.03 inSnowLight Snow
3:08 AM27.0 °F24.1 °F89 %29.79 in2.0 miNNW (340°)11.5 mph0.00 inSnowLight Snow
3:36 AM27.0 °F23.0 °F85 %29.81 in2.5 miNNW (330°)15.0 mph0.00 inSnowLight Snow
3:44 AM27.0 °F23.0 °F85 %29.81 in3.0 miNNW (330°)16.1 mph21.9 mph0.00 inSnowLight Snow
3:53 AM27.0 °F23.0 °F85 %29.83 in2.0 miNNW (330°)16.1 mph21.9 mph0.00 inSnowLight Snow
4:01 AM27.0 °F23.0 °F85 %29.80 in1.8 miNNW (330°)12.7 mph20.7 mph0.00 inSnowLight Snow
4:30 AM26.1 °F23.0 °F88 %29.82 in3.0 miNW (320°)13.8 mph0.00 inSnowLight Snow
4:49 AM26.6 °F21.2 °F80 %29.83 in7.0 miNW (320°)13.8 mph0.00 inSnowLight Snow
4:53 AM26.1 °F21.9 °F84 %29.85 in8.0 miNNW (330°)13.8 mph21.9 mph0.00 inSnowLight Snow
5:04 AM26.1 °F21.0 °F81 %29.83 in10.0 miNNW (330°)12.7 mph0.00 inOvercast
5:31 AM26.1 °F21.9 °F84 %29.80 in10.0 miNNW (330°)12.7 mph0.00 inOvercast
5:53 AM26.1 °F19.9 °F78 %29.86 in10.0 miNW (320°)15.0 mph24.2 mph0.00 inOvercast
6:03 AM26.1 °F19.9 °F78 %29.85 in10.0 miNNW (330°)15.0 mph24.2 mphOvercast
6:53 AM25.0 °F19.0 °F78 %29.87 in10.0 miNNW (330°)18.4 mph25.3 mphOvercast
7:53 AM25.0 °F18.0 °F75 %29.91 in10.0 miNNW (330°)16.1 mph25.3 mphOvercast
8:53 AM25.0 °F17.1 °F72 %29.94 in10.0 miNNW (330°)15.0 mph24.2 mphOvercast
9:53 AM26.1 °F17.1 °F69 %29.96 in10.0 miNW (320°)12.7 mph0.00 inSnowLight Snow
10:53 AM27.0 °F16.0 °F63 %29.98 in9.0 miNW (320°)11.5 mph21.9 mph0.00 inOvercast
11:04 AM27.0 °F16.0 °F63 %29.96 in9.0 miNW (310°)12.7 mph23.0 mph0.00 inSnowLight Snow
11:53 AM28.0 °F15.1 °F58 %30.01 in9.0 miNW (320°)16.1 mph24.2 mph0.00 inOvercast
12:53 PM30.9 °F12.0 °F46 %30.01 in10.0 miNNW (330°)19.6 mph26.5 mph0.00 inOvercast
1:53 PM30.0 °F19.0 °F64 %30.04 in5.0 miWNW (290°)15.0 mph21.9 mph0.00 inSnowLight Snow
2:00 PM28.0 °F19.9 °F72 %30.01 in1.8 miWNW (290°)13.8 mph0.00 inSnowLight Snow
2:10 PM30.0 °F19.0 °F64 %30.01 in4.0 miNW (310°)12.7 mph19.6 mph0.00 inSnowLight Snow
2:53 PM30.9 °F19.9 °F64 %30.06 in5.0 miWNW (290°)20.7 mph28.8 mph0.00 inSnowLight Snow
3:46 PM30.0 °F19.9 °F66 %30.04 in2.0 miWNW (300°)9.2 mph23.0 mph0.00 inSnowLight Snow
4:53 PM34.0 °F12.9 °F42 %30.08 in10.0 miWNW (300°)12.7 mph23.0 mphOvercast
5:53 PM32.0 °F12.0 °F44 %30.10 in10.0 miWNW (290°)15.0 mph21.9 mphMostly Cloudy
6:53 PM32.0 °F12.0 °F44 %30.14 in10.0 miNW (310°)12.7 mphOvercast
7:53 PM30.9 °F10.0 °F42 %30.16 in10.0 miNW (320°)12.7 mph23.0 mphOvercast
9:53 PM28.9 °F8.1 °F41 %30.23 in10.0 miWNW (300°)6.9 mphClear
10:53 PM27.0 °F9.0 °F47 %30.25 in10.0 miWNW (300°)3.5 mphClear
11:53 PM25.0 °F10.9 °F55 %30.27 in10.0 miCalmClear
Hourly data recorded from KARB, located miles away from Ann Arbor, Michigan







STORIES FROM OUR PARTNERS